STARLINK-30095, 56289

Orbit data source: Space-Track

STARLINK-30095, 56289 is a payload satellite owned by SpaceX/Seattle (US) in LEO that was launched on Wed, 19 Apr 2023 UTC via an FALCON 9 launch vehicle from the Air Force Eastern Test Range (AFETR). Payload-class satellites include a variety of spacecraft equipped with specific instruments for various scientific and technological missions. These include communications satellites like Starlink; space stations such as the ISS; scientific satellites like the Hubble; Earth observation satellites from companies like Planet Labs, Umbra, and HawkEye 360; GPS; miniature CubeSats for education and research; and military/defense satellites.

Loading next visibility...
Identifier
56289, 2023-056D
Orbit
LEO
Country
Flag of USUS
Related business
Manufacturer
SpaceX/Seattle
Mission
Operational Commercial Communications
Bus & Motor
STARLINK V2M, Unknown motor
Mass
730 kg wet, ~700 kg dry
Launch date (UTC)
2023-04-19 (3 years ago)
Launch vehicle
FALCON 9
Launch site
Air Force Eastern Test Range (AFETR)
Object type
Payload
Rocket body
Debris
Shape & HBR
Box + 2 Pan, 17.7 m
Radar Cross Section
33.884 m², Large (>1 m²)

Expand to show TLE details & history
Last TLE update: 20 hours ago

TLE from 20 hours ago
0 STARLINK-30095
1 56289U 23056D   25348.87267981 -.00000751  00000-0 -40555-4 0  9994
2 56289  43.0034 285.1389 0001366 274.0431  86.0256 15.02538745147569
Epoch: 2025-12-14T20:56Z
TLE epoch observation values (Epoch: 2025-12-14T20:56:39.535Z)
Latitude
0.00003°
Longitude
-112.80516°
Altitude
558.784 km
Speed
7.584 km/s
True Right ascension
19h 00m 33s
True Declination
0° 00' 00"
Sunlit
Object was in daylight at epoch
Visualization orbit readout
Latitude
Unknown
Longitude
Unknown
Altitude
Unknown
Speed
Unknown
Apparent Right ascension
Unknown
Apparent Declination
Unknown
Sunlit
N/A
Visualization observer readout
Local Sidereal Time
15:11:33
Azimuth
Unknown
Elevation
Unknown
Doppler factor
Unknown
Orbital elements
Apogee altitude
561.942 km
Perigee altitude
560.047 km
Semi-major axis
6,939.131 km
Eccentricity
0.00014
Inclination
43.0034°
RAAN
285.1389°
Arg. of periapsis
274.0431°
True anomaly
86.04122°
Mean anomaly
86.0256°
Eccentric anomaly
86.03341°
Mean motion
3.75479 °/min
Orbital period
95.88 mins
BSTAR
-0.000040555
Loading maneuver chart data...
Computing Atmospheric mass density...
Loading historical data...
Loading historical data...
Loading historical data...
Loading historical data...
Loading historical data...
Loading historical data...
Loading historical data...

Documentation

Showing up to 5 results
|